K1CSF Weather Reports


time (UTC)temp
C
wind
direction
speed
KPH
gust
KPH
rain 1hr
cm
rain 24hr
cm
rain mn
cm
humidity
%
barometer
mb
20260507171519 8 324 12.9 29.0 0.00 0.69 0.00 53 1009.1
20260507170018 8 302 16.1 33.8 0.00 0.69 0.00 50 1009.5
20260507164519 8 272 12.9 29.0 0.00 0.97 0.00 54 1009.6
20260507163013 8 272 17.7 30.6 0.00 0.97 0.00 54 1009.8
20260507161514 8 330 14.5 30.6 0.00 0.97 0.00 55 1009.8
20260507160009 7 267 12.9 33.8 0.00 1.17 0.00 56 1009.8
20260507154508 7 323 16.1 29.0 0.00 1.17 0.00 58 1010.0
20260507153006 6 253 17.7 32.2 0.00 1.17 0.00 61 1010.1
20260507151502 6 267 14.5 25.7 0.00 1.17 0.00 63 1010.2
20260507150002 6 323 12.9 30.6 0.00 1.32 0.00 65 1010.5
20260507144602 6 300 16.1 30.6 0.00 1.32 0.00 64 1010.4
20260507143101 6 231 9.7 27.4 0.00 1.32 0.00 66 1010.3
20260507141602 6 340 9.7 33.8 0.00 1.32 0.00 70 1010.4
20260507140113 6 309 14.5 27.4 0.00 1.32 0.00 70 1010.1
20260507134554 5 243 9.7 30.6 0.00 1.42 0.00 73 1010.1
20260507133051 6 210 11.3 20.9 0.00 1.42 0.00 76 1010.2
20260507131601 5 221 6.4 14.5 0.00 1.42 0.00 79 1009.9
20260507130053 5 296 8.0 16.1 0.00 1.42 0.00 80 1010.2
20260507124552 5 275 3.2 11.3 0.00 1.63 0.00 88 1010.3
20260507123052 4 348 4.8 8.0 0.00 1.63 0.00 90 1010.3
20260507121543 4 341 4.8 9.7 0.00 1.63 0.00 90 1010.1
20260507120043 4 289 3.2 8.0 0.00 1.63 0.00 91 1009.9
20260507114544 4 250 4.8 11.3 0.00 1.78 0.00 91 1009.8
20260507113040 5 241 3.2 8.0 0.00 1.78 0.00 91 1009.7
20260507111543 5 248 3.2 4.8 0.00 1.78 0.00 90 1009.8
20260507110037 5 275 0.0 3.2 0.00 1.78 0.00 90 1009.7
20260507104539 5 277 1.6 4.8 0.00 1.85 0.00 91 1009.4
20260507103035 4 338 3.2 8.0 0.00 1.85 0.00 91 1009.5
20260507101543 4 5 4.8 8.0 0.00 1.85 0.00 92 1009.6
20260507100036 4 341 1.6 6.4 0.00 1.85 0.00 91 1009.5
20260507094534 4 350 1.6 4.8 0.00 1.91 0.00 91 1009.2
20260507093038 4 337 3.2 6.4 0.00 1.91 0.00 92 1009.4
20260507091531 4 343 1.6 6.4 0.00 1.91 0.00 92 1009.2
20260507090033 4 5 3.2 8.0 0.00 1.91 0.00 92 1009.1
20260507084530 4 355 3.2 9.7 0.00 1.98 0.00 92 1009.3
20260507083037 4 342 3.2 9.7 0.00 1.98 0.00 92 1009.8
20260507081529 4 334 3.2 8.0 0.00 1.98 0.00 92 1009.8
20260507080025 4 327 3.2 6.4 0.00 1.98 0.00 92 1009.8
20260507074528 4 339 3.2 9.7 0.00 2.03 0.00 92 1009.7
20260507073022 4 348 3.2 6.4 0.00 2.03 0.00 92 1009.4
20260507071521 4 350 3.2 6.4 0.00 2.03 0.00 92 1009.4
20260507070021 4 355 1.6 4.8 0.00 2.03 0.00 92 1009.2
20260507064519 4 351 1.6 9.7 0.00 2.11 0.00 92 1009.2
20260507063018 3 349 1.6 6.4 0.00 2.11 0.00 92 1009.4
20260507061517 3 333 1.6 4.8 0.00 2.11 0.00 92 1009.4
20260507060018 3 333 0.0 3.2 0.00 2.11 0.00 92 1009.4
20260507054515 3 333 1.6 3.2 0.00 2.18 0.00 92 1009.3
20260507053016 3 333 0.0 6.4 0.00 2.18 0.00 92 1009.7
20260507051510 4 333 1.6 3.2 0.00 2.18 0.00 92 1010.1
20260507050011 4 333 0.0 4.8 0.00 2.26 0.00 92 1010.0
20260507044507 4 333 0.0 3.2 0.00 2.26 0.00 92 1010.3
20260507043006 4 333 3.2 6.4 0.00 2.26 0.00 92 1010.1
20260507041503 4 332 3.2 6.4 0.00 2.26 0.00 92 1010.3
20260507040001 4 332 1.6 4.8 0.00 2.46 2.26 91 1010.2
20260507034502 5 332 0.0 4.8 0.00 2.46 2.26 91 1010.2
20260507033100 5 331 3.2 8.0 0.00 2.46 2.26 92 1010.4
20260507031602 5 331 4.8 8.0 0.00 2.46 2.26 91 1010.4
20260507030100 5 298 6.4 12.9 0.00 2.46 2.26 92 1010.3
20260507024556 5 278 1.6 9.7 0.00 2.57 2.26 92 1010.2
20260507023055 5 342 0.0 6.4 0.00 2.57 2.26 92 1009.9
20260507021554 5 286 1.6 6.4 0.00 2.57 2.26 92 1010.3
20260507014603 5 313 3.2 9.7 0.03 2.59 2.26 92 1010.5
20260507013051 5 276 3.2 9.7 0.10 2.59 2.26 92 1010.4
20260507011601 5 292 1.6 12.9 0.13 2.59 2.26 92 1010.3
20260507010050 5 252 3.2 14.5 0.13 2.59 2.26 92 1010.1
20260507004549 5 267 3.2 9.7 0.08 2.54 2.21 92 1009.9
20260507003048 5 269 3.2 8.0 0.03 2.49 2.16 92 1009.6
20260507001602 5 329 0.0 4.8 0.03 2.46 2.13 92 1009.3
20260507000053 5 330 1.6 8.0 0.03 2.46 2.13 92 1009.2
20260506234547 5 319 3.2 6.4 0.03 2.46 2.13 92 1009.0
20260506233046 5 360 3.2 16.1 0.03 2.46 2.13 92 1008.7
20260506231544 5 360 3.2 12.9 0.00 2.44 2.11 92 1008.7
20260506230048 5 348 8.0 16.1 0.00 2.44 2.11 92 1009.0
20260506224545 6 351 6.4 12.9 0.00 2.44 2.11 92 1008.8
20260506223043 6 342 8.0 16.1 0.00 2.44 2.11 92 1008.8
20260506221543 6 350 6.4 14.5 0.00 2.44 2.11 92 1008.6
20260506220056 6 5 4.8 12.9 0.03 2.44 2.11 92 1008.6
20260506214545 6 338 6.4 16.1 0.05 2.44 2.11 92 1008.5
20260506213040 6 17 4.8 9.7 0.08 2.44 2.11 92 1008.4
20260506211541 6 314 1.6 6.4 0.10 2.44 2.11 92 1008.4
20260506210040 6 318 1.6 4.8 0.10 2.41 2.08 92 1008.6
20260506204540 6 313 6.4 12.9 0.10 2.44 2.06 92 1008.7
20260506203111 6 299 4.8 8.0 0.13 2.41 2.03 92 1008.5
20260506201539 6 317 4.8 8.0 0.10 2.39 2.01 91 1008.4
20260506200046 6 319 0.0 6.4 0.10 2.36 1.98 91 1008.2
20260506194538 6 48 1.6 9.7 0.08 2.44 1.96 91 1007.9
20260506193036 6 340 6.4 12.9 0.05 2.39 1.91 92 1008.1
20260506191536 6 348 3.2 9.7 0.08 2.39 1.91 91 1008.3
20260506190045 6 355 1.6 12.9 0.10 2.36 1.88 92 1008.3
20260506184538 6 313 1.6 4.8 0.15 2.36 1.88 92 1008.4
20260506183032 6 312 1.6 8.0 0.18 2.34 1.85 92 1008.5
20260506181534 5 293 4.8 9.7 0.18 2.31 1.83 92 1008.7
20260506180031 5 290 1.6 8.0 0.20 2.26 1.78 92 1008.8
20260506174530 5 302 1.6 8.0 0.20 2.21 1.73 92 1008.8
20260506173037 5 296 1.6 8.0 0.23 2.16 1.68 92 1009.0